Tracking 28081 objects as of 26-Sep-2023
HD Live streaming from Space Station
objects crossing your sky now

ERS 1

Track ERS 1 now!
10-day predictions
ERS 1 is classified as:


NORAD ID: 21574
Int'l Code: 1991-050A
Perigee: 748.3 km
Apogee: 794.7 km
Inclination: 98.8 °
Period: 100.1 minutes
Semi major axis: 7142 km
RCS: 11.0086 m2 (large)
Launch date: July 17, 1991
Source: European Space Agency (ESA)
Launch site: FRENCH GUIANA (FRGUI)
Your satellite tracking list
Your tracking list is empty




NASA's NSSDC Master Catalog

Two Line Element Set (TLE):
1 21574U 91050A   23268.90063038  .00000595  00000-0  20988-3 0  9993
2 21574  98.7534 250.0297 0032439 339.9747  20.0164 14.38231007686917
Source of the keplerian elements: AFSPC